This is the latest recevied weather packets stored in our database for station/object KC2GYU. If no packets are shown the sender has not sent any weather packets the latest 10 day(s).
| Time | Temp. | Humidity | Pressure | Rain* | Wind** | Luminosity | Snow |
|---|---|---|---|---|---|---|---|
| 1777741136 | 15° C | 66% | 1012.4 hPa | 0 mm | - | 277 W/m² | - |
| 1777740833 | 15° C | 64% | 1012.4 hPa | 0 mm | - | 256 W/m² | - |
| 1777740530 | 15° C | 69% | 1012.6 hPa | 0 mm | - | 217 W/m² | - |
| 1777740227 | 14.44° C | 65% | 1012.7 hPa | 0 mm | - | 196 W/m² | - |
| 1777739923 | 15° C | 65% | 1012.4 hPa | 0 mm | - | 198 W/m² | - |
| 1777739620 | 15° C | 68% | 1012.7 hPa | 0 mm | - | 217 W/m² | - |
| 1777739317 | 14.44° C | 69% | 1012.8 hPa | 0 mm | - | 204 W/m² | - |
| 1777739014 | 14.44° C | 70% | 1012.9 hPa | 0 mm | - | 179 W/m² | - |
| 1777738711 | 14.44° C | 70% | 1013 hPa | 0 mm | - | 189 W/m² | - |
| 1777738407 | 14.44° C | 69% | 1012.9 hPa | 0 mm | - | 183 W/m² | - |
| 1777738105 | 14.44° C | 72% | 1013.2 hPa | 0 mm | - | 212 W/m² | - |
| 1777737804 | 14.44° C | 69% | 1013.3 hPa | 0 mm | - | 191 W/m² | - |
| 1777737502 | 14.44° C | 71% | 1013.3 hPa | 0 mm | - | 192 W/m² | - |
| 1777737200 | 15° C | 73% | 1013 hPa | 0 mm | - | 201 W/m² | - |
| 1777736895 | 14.44° C | 71% | 1013.3 hPa | 0 mm | - | 265 W/m² | - |
| 1777736829 | 14.44° C | 72% | 1013.4 hPa | 0 mm | - | 235 W/m² | - |
| 1777736060 | 13.89° C | 71% | 1012.9 hPa | 0 mm | - | 314 W/m² | - |
| 1777736031 | 13.89° C | 74% | 1012.9 hPa | 0 mm | - | 325 W/m² | - |
| 1777735990 | 13.89° C | 73% | 1012.9 hPa | 0 mm | - | 321 W/m² | - |
| 1777735954 | 13.89° C | 73% | 1012.9 hPa | 0 mm | - | 321 W/m² | - |
| 1777735886 | 13.89° C | 72% | 1012.8 hPa | 0 mm | - | 309 W/m² | - |
| 1777735584 | 13.89° C | 74% | 1013.1 hPa | 0 mm | - | 232 W/m² | - |
| 1777735281 | 13.89° C | 74% | 1013 hPa | 0 mm | - | 202 W/m² | - |
| 1777734978 | 13.89° C | 75% | 1013.1 hPa | 0 mm | - | 187 W/m² | - |
| 1777734676 | 13.33° C | 75% | 1013 hPa | 0 mm | - | 181 W/m² | - |
* Rain latest hour (hover to see other rain measurements)
** Current wind speed in m/s (hover to see current wind gust speed)